Terug naar catalogus

STARLINK-11557

ActiefCommunicatieVLEO
NORAD 62837·PAYLOAD·🇺🇸 United States

Gelanceerd Jan 27, 2025 vanaf Cape Canaveral Space Force Station

Loading…

Volgende Passages (komende 24 uur)

TLE

VersSource: CelesTrak SupGP

Epoch: Sep 15, 2026, 02:58 UTC

1 62837C 25019J   26258.12409722 -.00021063  00000+0 -16354-3 0  2586
2 62837  43.0004 243.9877 0001384 270.3753 156.4835 15.70858090    18

Volg STARLINK-11557 in realtime met AllMySat

Download on the App Store